EWG3UE EDDL-EDDC

Flight info

Callsign EWG3UE
Flight time 0h 48m
Altitude 23000
Route NUDGO5Z NUDGO Z858 BERDI Z21 DRN
Aircraft A319/M-SDE3FGHIRWY/LB1

Departure

Time 2026-05-08 18:37
Airport Düsseldorf Airport (EDDL)

Arrival

Time 2026-05-08 19:25
Airport Dresden Airport (EDDC)
Time Latitude Longitude Altitude Speed Heading
2026-05-08 18:09 51.28106 6.76719 129 ft 0 kts 276°
2026-05-08 18:26 51.28105 6.76755 129 ft 4 kts 263°
2026-05-08 18:27 51.28112 6.76795 127 ft 4 kts 235°
2026-05-08 18:27 51.28123 6.76815 128 ft 4 kts 213°
2026-05-08 18:27 51.28153 6.76832 128 ft 4 kts 189°
2026-05-08 18:27 51.28179 6.76838 129 ft 4 kts 186°
2026-05-08 18:28 51.28200 6.76842 130 ft 4 kts 186°
2026-05-08 18:28 51.28227 6.76847 130 ft 4 kts 186°
2026-05-08 18:28 51.28254 6.76852 130 ft 4 kts 186°
2026-05-08 18:28 51.28278 6.76856 130 ft 2 kts 186°
2026-05-08 18:29 51.28302 6.76864 127 ft 4 kts 207°
2026-05-08 18:29 51.28323 6.76889 126 ft 4 kts 229°
2026-05-08 18:29 51.28338 6.76918 126 ft 3 kts 232°
2026-05-08 18:29 51.28354 6.76952 124 ft 4 kts 232°
2026-05-08 18:30 51.28366 6.76978 126 ft 0 kts 233°
2026-05-08 18:32 51.28366 6.76977 125 ft 1 kts 233°
2026-05-08 18:32 51.28354 6.76946 124 ft 6 kts 244°
2026-05-08 18:32 51.28376 6.76862 125 ft 12 kts 323°
2026-05-08 18:32 51.28454 6.76759 127 ft 14 kts 300°
2026-05-08 18:33 51.28414 6.76617 124 ft 15 kts 232°
2026-05-08 18:33 51.28348 6.76480 124 ft 16 kts 233°
2026-05-08 18:33 51.28283 6.76342 125 ft 15 kts 233°
2026-05-08 18:33 51.28219 6.76208 124 ft 15 kts 232°
2026-05-08 18:34 51.28156 6.76077 127 ft 15 kts 233°
2026-05-08 18:34 51.28093 6.75944 128 ft 15 kts 232°
2026-05-08 18:34 51.28027 6.75807 128 ft 16 kts 232°
2026-05-08 18:34 51.27960 6.75665 126 ft 16 kts 233°
2026-05-08 18:35 51.27889 6.75516 126 ft 14 kts 232°
2026-05-08 18:35 51.27839 6.75405 126 ft 11 kts 246°
2026-05-08 18:35 51.27884 6.75315 125 ft 12 kts 335°
2026-05-08 18:35 51.27966 6.75264 122 ft 14 kts 360°
2026-05-08 18:36 51.28026 6.75337 122 ft 9 kts 53°
2026-05-08 18:36 51.28074 6.75437 126 ft 22 kts 53°
2026-05-08 18:36 51.28336 6.75988 130 ft 99 kts 53°
2026-05-08 18:36 51.28887 6.77139 193 ft 153 kts 52°
2026-05-08 18:37 51.29546 6.78501 801 ft 157 kts 51°
2026-05-08 18:37 51.30222 6.79908 1434 ft 167 kts 52°
2026-05-08 18:37 51.30963 6.81477 1848 ft 189 kts 53°
2026-05-08 18:37 51.31802 6.83256 2245 ft 213 kts 53°
2026-05-08 18:38 51.32769 6.85290 2602 ft 244 kts 53°
2026-05-08 18:38 51.33828 6.87534 3403 ft 257 kts 54°
2026-05-08 18:38 51.34849 6.89905 4405 ft 262 kts 62°
2026-05-08 18:38 51.35283 6.92737 5349 ft 268 kts 92°
2026-05-08 18:39 51.35026 6.95712 6309 ft 274 kts 99°
2026-05-08 18:39 51.35010 6.98792 7191 ft 281 kts 85°
2026-05-08 18:39 51.35171 7.01926 8143 ft 285 kts 85°
2026-05-08 18:39 51.35330 7.05107 9081 ft 289 kts 85°
2026-05-08 18:40 51.35489 7.08340 10020 ft 294 kts 85°
2026-05-08 18:40 51.35599 7.10569 10461 ft 304 kts 85°
2026-05-08 18:40 51.35771 7.14068 10805 ft 327 kts 85°
2026-05-08 18:40 51.35950 7.17768 11428 ft 338 kts 86°
2026-05-08 18:41 51.36131 7.21543 12240 ft 342 kts 85°
2026-05-08 18:41 51.36313 7.25372 13038 ft 348 kts 86°
2026-05-08 18:41 51.36497 7.29254 13857 ft 352 kts 86°
2026-05-08 18:41 51.36683 7.33179 14580 ft 356 kts 86°
2026-05-08 18:42 51.36868 7.37092 15285 ft 359 kts 86°
2026-05-08 18:42 51.37056 7.41152 16014 ft 363 kts 86°
2026-05-08 18:42 51.37242 7.45193 16742 ft 366 kts 86°
2026-05-08 18:42 51.37429 7.49275 17452 ft 369 kts 86°
2026-05-08 18:43 51.37616 7.53396 18175 ft 373 kts 86°
2026-05-08 18:43 51.37804 7.57551 18827 ft 376 kts 86°
2026-05-08 18:43 51.37993 7.61753 19438 ft 380 kts 86°
2026-05-08 18:43 51.38179 7.65934 20051 ft 384 kts 86°
2026-05-08 18:44 51.38369 7.70215 20642 ft 388 kts 86°
2026-05-08 18:44 51.38558 7.74569 21247 ft 392 kts 86°
2026-05-08 18:44 51.38744 7.78922 21837 ft 396 kts 86°
2026-05-08 18:44 51.38933 7.83337 22439 ft 400 kts 86°
2026-05-08 18:45 51.39124 7.87799 22976 ft 404 kts 86°
2026-05-08 18:45 51.39314 7.92283 23114 ft 402 kts 86°
2026-05-08 18:45 51.39500 7.96671 23135 ft 390 kts 86°
2026-05-08 18:45 51.39679 8.00980 23135 ft 387 kts 86°
2026-05-08 18:46 51.39855 8.05265 23132 ft 386 kts 86°
2026-05-08 18:46 51.40027 8.09550 23134 ft 385 kts 86°
2026-05-08 18:46 51.40195 8.13833 23133 ft 385 kts 86°
2026-05-08 18:46 51.40363 8.18115 23130 ft 385 kts 86°
2026-05-08 18:47 51.40532 8.22398 23136 ft 386 kts 86°
2026-05-08 18:47 51.40700 8.26682 23140 ft 386 kts 86°
2026-05-08 18:47 51.40867 8.30970 23138 ft 386 kts 86°
2026-05-08 18:47 51.41031 8.35254 23140 ft 385 kts 86°
2026-05-08 18:48 51.41194 8.39536 23135 ft 385 kts 86°
2026-05-08 18:48 51.41355 8.43822 23136 ft 385 kts 87°
2026-05-08 18:48 51.41433 8.48112 23137 ft 385 kts 90°
2026-05-08 18:48 51.41413 8.52395 23136 ft 385 kts 91°
2026-05-08 18:49 51.41339 8.56681 23130 ft 385 kts 92°
2026-05-08 18:49 51.41247 8.60963 23130 ft 385 kts 92°
2026-05-08 18:49 51.41159 8.65248 23133 ft 385 kts 92°
2026-05-08 18:49 51.41081 8.69532 23128 ft 385 kts 92°
2026-05-08 18:50 51.41015 8.73821 23125 ft 386 kts 91°
2026-05-08 18:50 51.40796 8.78098 23128 ft 386 kts 98°
2026-05-08 18:50 51.40457 8.82346 23126 ft 386 kts 98°
2026-05-08 18:50 51.40118 8.86611 23129 ft 386 kts 98°
2026-05-08 18:51 51.39781 8.90872 23137 ft 386 kts 97°
2026-05-08 18:51 51.39443 8.95141 23136 ft 386 kts 98°
2026-05-08 18:51 51.39102 8.99410 23137 ft 386 kts 98°
2026-05-08 18:51 51.38761 9.03677 23135 ft 387 kts 98°
2026-05-08 18:52 51.38543 9.07965 23138 ft 387 kts 90°
2026-05-08 18:52 51.38666 9.12264 23139 ft 387 kts 87°
2026-05-08 18:52 51.38803 9.16566 23139 ft 387 kts 87°
2026-05-08 18:52 51.38928 9.20869 23140 ft 387 kts 87°
2026-05-08 18:53 51.39051 9.25173 23145 ft 387 kts 87°
2026-05-08 18:53 51.39172 9.29475 23145 ft 387 kts 88°
2026-05-08 18:53 51.39292 9.33776 23150 ft 387 kts 88°
2026-05-08 18:53 51.39411 9.38075 23152 ft 387 kts 88°
2026-05-08 18:54 51.39528 9.42385 23149 ft 387 kts 88°
2026-05-08 18:54 51.39643 9.46685 23150 ft 387 kts 88°
2026-05-08 18:54 51.39754 9.50989 23151 ft 387 kts 88°
2026-05-08 18:54 51.39867 9.55291 23151 ft 387 kts 88°
2026-05-08 18:55 51.40097 9.63892 23147 ft 387 kts 88°
2026-05-08 18:55 51.40209 9.68191 23145 ft 387 kts 88°
2026-05-08 18:55 51.40319 9.72497 23145 ft 387 kts 88°
2026-05-08 18:56 51.40428 9.76802 23158 ft 387 kts 88°
2026-05-08 18:56 51.40534 9.81108 23156 ft 387 kts 88°
2026-05-08 18:56 51.40636 9.85399 23155 ft 387 kts 88°
2026-05-08 18:56 51.40736 9.89706 23155 ft 387 kts 88°
2026-05-08 18:57 51.40833 9.94009 23156 ft 387 kts 88°
2026-05-08 18:57 51.40897 9.96866 23155 ft 387 kts 88°
2026-05-08 18:57 51.41027 10.02630 23158 ft 387 kts 88°
2026-05-08 18:57 51.41124 10.06936 23158 ft 387 kts 88°
2026-05-08 18:58 51.41221 10.11250 23158 ft 387 kts 88°
2026-05-08 18:58 51.41315 10.15560 23154 ft 387 kts 88°
2026-05-08 18:58 51.41406 10.19873 23158 ft 388 kts 88°
2026-05-08 18:58 51.41493 10.24191 23153 ft 388 kts 88°
2026-05-08 18:59 51.41581 10.28509 23154 ft 388 kts 88°
2026-05-08 18:59 51.41669 10.32828 23154 ft 388 kts 88°
2026-05-08 18:59 51.41757 10.37149 23154 ft 388 kts 88°
2026-05-08 18:59 51.41843 10.41471 23163 ft 388 kts 88°
2026-05-08 19:00 51.41925 10.45791 23169 ft 388 kts 88°
2026-05-08 19:00 51.41995 10.50117 23164 ft 388 kts 90°
2026-05-08 19:00 51.41768 10.54417 23164 ft 388 kts 99°
2026-05-08 19:00 51.41347 10.58683 23173 ft 388 kts 99°
2026-05-08 19:01 51.40928 10.62952 23168 ft 388 kts 99°
2026-05-08 19:01 51.40512 10.67224 23170 ft 388 kts 99°
2026-05-08 19:01 51.40096 10.71495 23163 ft 388 kts 99°
2026-05-08 19:01 51.39678 10.75766 23168 ft 388 kts 99°
2026-05-08 19:02 51.39256 10.80036 23163 ft 388 kts 99°
2026-05-08 19:02 51.38831 10.84306 23162 ft 388 kts 99°
2026-05-08 19:02 51.38323 10.88551 23165 ft 388 kts 104°
2026-05-08 19:02 51.37688 10.92751 23165 ft 388 kts 105°
2026-05-08 19:03 51.37021 10.96879 23163 ft 388 kts 105°
2026-05-08 19:03 51.36324 11.01047 23163 ft 388 kts 106°
2026-05-08 19:03 51.35621 11.05212 23164 ft 388 kts 106°
2026-05-08 19:03 51.34909 11.09442 23165 ft 388 kts 105°
2026-05-08 19:04 51.34211 11.13613 23159 ft 389 kts 105°
2026-05-08 19:04 51.33526 11.17735 23165 ft 389 kts 105°
2026-05-08 19:04 51.32834 11.21917 23164 ft 389 kts 105°
2026-05-08 19:04 51.32142 11.26098 23166 ft 389 kts 105°
2026-05-08 19:05 51.31449 11.30282 23165 ft 389 kts 105°
2026-05-08 19:05 51.30745 11.34517 23172 ft 389 kts 105°
2026-05-08 19:05 51.30046 11.38700 23168 ft 389 kts 105°
2026-05-08 19:05 51.29345 11.42878 23169 ft 389 kts 105°
2026-05-08 19:06 51.28652 11.46999 23170 ft 389 kts 105°
2026-05-08 19:06 51.27947 11.51175 23172 ft 390 kts 105°
2026-05-08 19:06 51.27240 11.55351 23171 ft 390 kts 106°
2026-05-08 19:06 51.26533 11.59526 23170 ft 390 kts 106°
2026-05-08 19:07 51.25822 11.63704 23172 ft 390 kts 106°
2026-05-08 19:07 51.25112 11.67881 23170 ft 390 kts 106°
2026-05-08 19:07 51.24406 11.72039 22965 ft 385 kts 106°
2026-05-08 19:07 51.23707 11.76140 22693 ft 381 kts 106°
2026-05-08 19:08 51.23010 11.80207 22422 ft 379 kts 106°
2026-05-08 19:08 51.22315 11.84259 22154 ft 378 kts 106°
2026-05-08 19:08 51.21623 11.88290 21889 ft 376 kts 106°
2026-05-08 19:08 51.20933 11.92304 21626 ft 375 kts 106°
2026-05-08 19:09 51.20243 11.96297 21366 ft 373 kts 106°
2026-05-08 19:09 51.19552 12.00283 21100 ft 372 kts 106°
2026-05-08 19:09 51.18863 12.04245 20844 ft 371 kts 106°
2026-05-08 19:09 51.18175 12.08196 20581 ft 369 kts 106°
2026-05-08 19:10 51.17490 12.12126 20326 ft 368 kts 106°
2026-05-08 19:10 51.16805 12.16044 20075 ft 366 kts 106°
2026-05-08 19:10 51.16122 12.19949 19835 ft 365 kts 106°
2026-05-08 19:10 51.15443 12.23832 19596 ft 363 kts 106°
2026-05-08 19:11 51.14762 12.27704 19349 ft 362 kts 106°
2026-05-08 19:11 51.14081 12.31554 19108 ft 361 kts 106°
2026-05-08 19:11 51.13400 12.35390 18871 ft 360 kts 106°
2026-05-08 19:11 51.12720 12.39214 18631 ft 358 kts 107°
2026-05-08 19:12 51.12046 12.43004 18325 ft 354 kts 106°
2026-05-08 19:12 51.11378 12.46759 17890 ft 351 kts 107°
2026-05-08 19:12 51.10713 12.50490 17456 ft 350 kts 107°
2026-05-08 19:12 51.10049 12.54203 17036 ft 348 kts 107°
2026-05-08 19:13 51.09390 12.57899 16612 ft 347 kts 106°
2026-05-08 19:13 51.08734 12.61579 16186 ft 345 kts 107°
2026-05-08 19:13 51.08077 12.65248 15777 ft 344 kts 107°
2026-05-08 19:13 51.07417 12.68901 15360 ft 343 kts 107°
2026-05-08 19:14 51.06757 12.72542 14946 ft 342 kts 107°
2026-05-08 19:14 51.06102 12.76174 14534 ft 341 kts 107°
2026-05-08 19:14 51.05446 12.79797 14110 ft 341 kts 107°
2026-05-08 19:14 51.04790 12.83413 13667 ft 340 kts 107°
2026-05-08 19:15 51.04137 12.87010 13242 ft 337 kts 107°
2026-05-08 19:15 51.03490 12.90580 12823 ft 335 kts 107°
2026-05-08 19:15 51.02845 12.94121 12414 ft 333 kts 107°
2026-05-08 19:15 51.02202 12.97636 11981 ft 330 kts 107°
2026-05-08 19:16 51.01560 13.01129 11553 ft 329 kts 107°
2026-05-08 19:16 51.00919 13.04600 11122 ft 327 kts 107°
2026-05-08 19:16 51.00284 13.08052 10704 ft 325 kts 106°
2026-05-08 19:16 50.99651 13.11487 10301 ft 323 kts 106°
2026-05-08 19:17 50.99031 13.14840 10129 ft 308 kts 106°
2026-05-08 19:17 50.98438 13.18038 9681 ft 298 kts 106°
2026-05-08 19:17 50.97856 13.21183 9043 ft 296 kts 107°
2026-05-08 19:17 50.97278 13.24297 8421 ft 293 kts 107°
2026-05-08 19:18 50.96704 13.27381 7816 ft 290 kts 107°
2026-05-08 19:18 50.96135 13.30438 7223 ft 287 kts 107°
2026-05-08 19:18 50.95572 13.33461 6632 ft 285 kts 107°
2026-05-08 19:18 50.95011 13.36461 6037 ft 282 kts 106°
2026-05-08 19:19 50.94455 13.39428 5433 ft 280 kts 106°
2026-05-08 19:19 50.93910 13.42332 5094 ft 267 kts 106°
2026-05-08 19:19 50.93438 13.45085 4956 ft 253 kts 97°
2026-05-08 19:19 50.93506 13.47769 4842 ft 237 kts 74°
2026-05-08 19:20 50.94146 13.50077 4739 ft 223 kts 54°
2026-05-08 19:20 50.94447 13.50707 4709 ft 219 kts 47°
2026-05-08 19:20 50.96289 13.53328 4545 ft 211 kts 39°
2026-05-08 19:20 50.97397 13.54839 4452 ft 210 kts 39°
2026-05-08 19:21 50.98503 13.56347 4364 ft 209 kts 39°
2026-05-08 19:21 50.99598 13.57841 4143 ft 206 kts 40°
2026-05-08 19:21 51.00682 13.59321 3884 ft 205 kts 39°
2026-05-08 19:21 51.01761 13.60795 3613 ft 205 kts 40°
2026-05-08 19:22 51.02841 13.62270 3333 ft 205 kts 41°
2026-05-08 19:22 51.03552 13.63243 3141 ft 203 kts 41°
2026-05-08 19:22 51.04607 13.64685 2912 ft 196 kts 41°
2026-05-08 19:22 51.05616 13.66067 2603 ft 186 kts 41°
2026-05-08 19:23 51.06571 13.67374 2368 ft 176 kts 41°
2026-05-08 19:23 51.07478 13.68614 2119 ft 167 kts 41°
2026-05-08 19:23 51.08329 13.69772 1910 ft 156 kts 41°
2026-05-08 19:23 51.09129 13.70872 1678 ft 147 kts 41°
2026-05-08 19:24 51.09882 13.71908 1474 ft 138 kts 41°
2026-05-08 19:24 51.10590 13.72890 1289 ft 132 kts 42°
2026-05-08 19:24 51.11283 13.73835 1102 ft 130 kts 40°
2026-05-08 19:24 51.11979 13.74790 934 ft 134 kts 40°
2026-05-08 19:25 51.12680 13.75757 777 ft 129 kts 41°
2026-05-08 19:25 51.13282 13.76588 746 ft 95 kts 41°
2026-05-08 19:25 51.13649 13.77096 732 ft 47 kts 40°
2026-05-08 19:25 51.13843 13.77363 725 ft 20 kts 40°
2026-05-08 19:26 51.13903 13.77471 721 ft 12 kts 78°
2026-05-08 19:26 51.13875 13.77559 719 ft 9 kts 132°
2026-05-08 19:26 51.13826 13.77648 718 ft 7 kts 130°
2026-05-08 19:26 51.13796 13.77703 716 ft 7 kts 131°
2026-05-08 19:27 51.13747 13.77705 713 ft 7 kts 205°
2026-05-08 19:27 51.13711 13.77658 716 ft 7 kts 220°
2026-05-08 19:27 51.13658 13.77586 718 ft 13 kts 221°
2026-05-08 19:27 51.13578 13.77475 722 ft 16 kts 221°
2026-05-08 19:28 51.13496 13.77362 729 ft 16 kts 221°
2026-05-08 19:28 51.13413 13.77248 733 ft 16 kts 221°
2026-05-08 19:28 51.13327 13.77130 739 ft 17 kts 220°
2026-05-08 19:28 51.13238 13.77007 743 ft 18 kts 221°
2026-05-08 19:29 51.13145 13.76879 746 ft 17 kts 221°
2026-05-08 19:29 51.13054 13.76754 749 ft 17 kts 220°
2026-05-08 19:29 51.12965 13.76630 750 ft 17 kts 221°
2026-05-08 19:29 51.12885 13.76520 751 ft 12 kts 220°
2026-05-08 19:30 51.12826 13.76451 754 ft 10 kts 198°
2026-05-08 19:30 51.12768 13.76498 754 ft 8 kts 130°
2026-05-08 19:30 51.12725 13.76579 752 ft 8 kts 130°
2026-05-08 19:30 51.12681 13.76611 750 ft 8 kts 202°
2026-05-08 19:31 51.12641 13.76560 752 ft 5 kts 221°
2026-05-08 19:31 51.12627 13.76540 750 ft 1 kts 221°
2026-05-08 19:31 51.12626 13.76540 750 ft 0 kts 221°